TimeEDT,TemperatureF,Dew PointF,Humidity,Sea Level PressureIn,VisibilityMPH,Wind Direction,Wind SpeedMPH,Gust SpeedMPH,PrecipitationIn,Events,Conditions,WindDirDegrees,DateUTC
12:56 AM,82.0,73.0,74,30.27,10.0,Calm,Calm,-,N/A,,Clear,0,2013-07-17 04:56:00
1:56 AM,81.0,73.0,77,30.27,10.0,Calm,Calm,-,N/A,,Clear,0,2013-07-17 05:56:00
2:56 AM,80.1,73.0,79,30.26,10.0,Calm,Calm,-,N/A,,Clear,0,2013-07-17 06:56:00
3:56 AM,79.0,73.0,82,30.26,10.0,Calm,Calm,-,N/A,,Clear,0,2013-07-17 07:56:00
4:56 AM,79.0,73.0,82,30.27,10.0,NNE,3.5,-,N/A,,Clear,20,2013-07-17 08:56:00
5:56 AM,78.1,73.0,84,30.28,10.0,Calm,Calm,-,N/A,,Clear,0,2013-07-17 09:56:00
6:56 AM,78.1,73.0,84,30.29,9.0,Calm,Calm,-,N/A,,Clear,0,2013-07-17 10:56:00
7:56 AM,79.0,73.0,82,30.30,8.0,Calm,Calm,-,N/A,,Mostly Cloudy,0,2013-07-17 11:56:00
8:56 AM,81.0,73.9,79,30.31,5.0,Calm,Calm,-,N/A,,Haze,0,2013-07-17 12:56:00
9:56 AM,84.9,75.0,72,30.31,7.0,NNW,3.5,-,N/A,,Scattered Clouds,340,2013-07-17 13:56:00
10:56 AM,89.1,73.0,59,30.30,10.0,North,8.1,-,N/A,,Scattered Clouds,10,2013-07-17 14:56:00
11:56 AM,91.0,72.0,53,30.29,10.0,Variable,5.8,-,N/A,,Scattered Clouds,0,2013-07-17 15:56:00
12:56 PM,91.9,72.0,52,30.28,10.0,Variable,6.9,-,N/A,,Scattered Clouds,0,2013-07-17 16:56:00
1:56 PM,93.9,70.0,46,30.26,10.0,NE,6.9,-,N/A,,Scattered Clouds,40,2013-07-17 17:56:00
2:56 PM,93.0,71.1,49,30.24,10.0,NNE,9.2,16.1,N/A,,Mostly Cloudy,30,2013-07-17 18:56:00
3:56 PM,90.0,73.9,59,30.22,9.0,NE,4.6,-,0.00,Rain,Light Rain,50,2013-07-17 19:56:00
4:56 PM,93.9,71.1,47,30.20,10.0,Variable,3.5,-,0.00,,Mostly Cloudy,0,2013-07-17 20:56:00
5:56 PM,91.0,72.0,53,30.18,10.0,NNW,6.9,-,N/A,,Mostly Cloudy,330,2013-07-17 21:56:00
6:56 PM,91.0,71.1,52,30.18,10.0,North,5.8,-,N/A,,Mostly Cloudy,10,2013-07-17 22:56:00
7:04 PM,91.4,71.6,52,30.20,9.0,North,6.9,-,N/A,Thunderstorm,Thunderstorm,10,2013-07-17 23:04:00
7:40 PM,84.2,69.8,62,30.20,10.0,NW,8.1,-,N/A,,Mostly Cloudy,310,2013-07-17 23:40:00
7:56 PM,86.0,68.0,55,30.18,10.0,NW,5.8,-,N/A,,Mostly Cloudy,310,2013-07-17 23:56:00
8:56 PM,86.0,71.6,62,30.19,10.0,NNW,5.8,-,N/A,,Scattered Clouds,330,2013-07-18 00:56:00
9:56 PM,84.9,73.0,67,30.20,9.0,Calm,Calm,-,N/A,,Mostly Cloudy,0,2013-07-18 01:56:00
10:56 PM,84.0,72.0,67,30.21,9.0,SE,6.9,-,N/A,,Mostly Cloudy,140,2013-07-18 02:56:00
11:56 PM,84.0,71.1,65,30.19,9.0,Calm,Calm,-,N/A,,Mostly Cloudy,0,2013-07-18 03:56:00